Weather History for KOQT - February, 2013

Change the Weather History Date:

Saturday, February 2, 2013

  Actual Average (KTYS) Record (KTYS)
Temperature  
Mean Temperature 28 °F 40 °F  
Max Temperature 34 °F 49 °F 74 °F (1989)
Min Temperature 23 °F 30 °F 3 °F (1917)
Degree Days  
Heating Degree Days 36 25  
Month to date heating degree days 51  
Since 1 July heating degree days 2313  
Cooling Degree Days 0 0  
Month to date cooling degree days 0  
Year to date cooling degree days 0  
Moisture  
Dew Point 22 °F    
Average Humidity 78    
Maximum Humidity 93    
Minimum Humidity 56    
Precipitation  
Precipitation 0.09 in 0.16 in 1.94 in (1939)
Month to date precipitation 0.31  
Year to date precipitation 4.63  
Snow  
Snow 0.00 in 0.10 in - ()
Month to date snowfall 0.2  
Since 1 July snowfall 3.7  
Snow Depth -    
Sea Level Pressure  
Sea Level Pressure 30.26 in    
Wind  
Wind Speed 2 mph (SW)    
Max Wind Speed 8 mph    
Max Gust Speed -    
Visibility 6 miles    
Events Fog , Snow    
T = Trace of Precipitation, MM = Missing Value Source: NWS Daily Summary

Daily Weather History Graph

Daily Weather History Graph

Search for Another Location

Airport or City:

Trip Planner

Search our weather history database for the weather conditions in past years. The results will help you decide how hot, cold, wet, or windy it might be!

Date:

Astronomy

Feb. 02, 2013 Rise Set
Actual Time 7:36 AM EST 6:05 PM EST
Civil Twilight 7:09 AM EST 6:32 PM EST
Nautical Twilight 6:39 AM EST 7:02 PM EST
Astronomical Twilight 6:08 AM EST 7:32 PM EST
Moon No Moon Rise 11:00 AM EST (2/2)
Length of Visible Light 11h 22m
Length of Day
10h 28m
Waning Gibbous, 60% of the Moon is Illuminated
Feb 2
Waning Gibbous
Feb 3
Last Quarter
Feb 10
New
Feb 17
First Quarter
Feb 25
Full

Hourly Weather History & Observations

Time (EST) Temp. Windchill Dew Point Humidity Pressure Visibility Wind Dir Wind Speed Gust Speed Precip Events Conditions
12:53 AM 25.0 °F - 12.0 °F 58% 30.43 in 10.0 mi Calm Calm - N/A   Clear
1:53 AM 25.0 °F 20.7 °F 12.0 °F 58% 30.41 in 10.0 mi SW 3.5 mph - N/A   Clear
2:53 AM 25.0 °F - 12.9 °F 60% 30.38 in 10.0 mi Calm Calm - N/A   Mostly Cloudy
3:53 AM 24.1 °F - 14.0 °F 65% 30.37 in 10.0 mi Calm Calm - N/A   Clear
4:53 AM 24.1 °F - 14.0 °F 65% 30.37 in 10.0 mi Calm Calm - N/A   Clear
5:53 AM 23.0 °F - 14.0 °F 68% 30.37 in 10.0 mi Calm Calm - N/A   Clear
6:53 AM 23.0 °F - 15.1 °F 72% 30.38 in 10.0 mi Calm Calm - N/A   Partly Cloudy
7:53 AM 23.0 °F - 16.0 °F 74% 30.37 in 10.0 mi Calm Calm - N/A   Mostly Cloudy
8:53 AM 26.1 °F 21.9 °F 16.0 °F 66% 30.38 in 10.0 mi WSW 3.5 mph - N/A   Overcast
9:53 AM 28.0 °F 21.7 °F 14.0 °F 56% 30.38 in 10.0 mi SW 5.8 mph - N/A   Overcast
9:57 AM 26.6 °F 18.2 °F 15.8 °F 64% 30.32 in 1.0 mi SSW 8.1 mph - 0.00 in Snow Light Snow
10:04 AM 24.8 °F 17.9 °F 19.4 °F 80% 30.32 in 0.2 mi Variable 5.8 mph - 0.01 in Snow Heavy Snow
10:16 AM 24.8 °F - 21.2 °F 86% 30.31 in 0.2 mi Calm Calm - 0.03 in Fog , Snow Snow
10:24 AM 24.8 °F - 21.2 °F 86% 30.30 in 0.2 mi Calm Calm - 0.04 in Fog , Snow Heavy Snow
10:47 AM 26.6 °F 21.2 °F 21.2 °F 80% 30.31 in 1.0 mi SW 4.6 mph - 0.05 in Snow Light Snow
10:53 AM 26.1 °F 20.5 °F 21.9 °F 84% 30.38 in 3.0 mi SSW 4.6 mph - 0.06 in Snow Light Snow
11:06 AM 26.6 °F 20.0 °F 21.2 °F 80% 30.31 in 1.8 mi SSW 5.8 mph - 0.00 in Snow Light Snow
11:18 AM 26.6 °F 21.2 °F 21.2 °F 80% 30.30 in 2.5 mi Variable 4.6 mph - 0.00 in Snow Light Snow
11:26 AM 26.6 °F 22.6 °F 21.2 °F 80% 30.28 in 0.8 mi SSW 3.5 mph - 0.00 in Snow Light Snow
11:42 AM 26.6 °F 20.0 °F 21.2 °F 80% 30.29 in 1.8 mi WSW 5.8 mph - 0.01 in Snow Light Snow
11:49 AM 26.6 °F 22.6 °F 21.2 °F 80% 30.28 in 2.5 mi Variable 3.5 mph - 0.01 in Snow Light Snow
11:53 AM 27.0 °F 23.0 °F 23.0 °F 85% 30.33 in 2.0 mi Variable 3.5 mph - 0.01 in Snow Light Snow
12:07 PM 26.6 °F 21.2 °F 21.2 °F 80% 30.26 in 7.0 mi Variable 4.6 mph - 0.00 in Snow Light Snow
12:22 PM 26.6 °F 21.2 °F 21.2 °F 80% 30.25 in 1.8 mi Variable 4.6 mph - 0.00 in Snow Light Snow
12:28 PM 26.6 °F 20.0 °F 23.0 °F 86% 30.25 in 0.8 mi Variable 5.8 mph - 0.00 in Snow Light Snow
12:32 PM 26.6 °F 22.6 °F 23.0 °F 86% 30.24 in 1.0 mi SW 3.5 mph - 0.01 in Snow Light Snow
12:45 PM 26.6 °F 20.0 °F 24.8 °F 93% 30.22 in 2.0 mi Variable 5.8 mph - 0.01 in Snow Light Snow
12:53 PM 27.0 °F 21.6 °F 23.0 °F 85% 30.28 in 3.0 mi Variable 4.6 mph - 0.01 in Snow Light Snow
1:04 PM 28.4 °F 22.2 °F 24.8 °F 86% 30.21 in 5.0 mi WSW 5.8 mph - 0.00 in Snow Light Snow
1:53 PM 28.9 °F 22.8 °F 25.0 °F 85% 30.22 in 10.0 mi SW 5.8 mph - 0.00 in   Overcast
2:24 PM 30.2 °F 24.3 °F 24.8 °F 80% 30.14 in 10.0 mi Variable 5.8 mph - N/A   Overcast
2:53 PM 30.9 °F 24.3 °F 25.0 °F 79% 30.19 in 10.0 mi WSW 6.9 mph - N/A   Overcast
3:53 PM 32.0 °F 25.6 °F 25.0 °F 75% 30.18 in 10.0 mi WSW 6.9 mph - N/A   Overcast
4:53 PM 33.1 °F - 26.1 °F 75% 30.16 in 10.0 mi Calm Calm - N/A   Overcast
5:15 PM 32.0 °F 28.7 °F 26.6 °F 80% 30.11 in 1.5 mi West 3.5 mph - 0.00 in Snow Light Snow
5:23 PM 32.0 °F 28.7 °F 26.6 °F 80% 30.11 in 1.0 mi West 3.5 mph - 0.01 in Snow Light Snow
5:34 PM 32.0 °F 27.5 °F 26.6 °F 80% 30.10 in 3.0 mi West 4.6 mph - 0.01 in Snow Light Snow
5:53 PM 32.0 °F - 27.0 °F 82% 30.16 in 6.0 mi Calm Calm - 0.01 in Snow Light Snow
6:53 PM 32.0 °F - 27.0 °F 82% 30.16 in 8.0 mi Calm Calm - 0.00 in   Overcast
7:53 PM 32.0 °F - 28.0 °F 85% 30.17 in 9.0 mi Calm Calm - N/A   Overcast
8:17 PM 32.0 °F - 28.4 °F 87% 30.12 in 10.0 mi Calm Calm - N/A   Overcast
8:41 PM 33.8 °F - 28.4 °F 81% 30.12 in 10.0 mi Calm Calm - N/A   Overcast
8:53 PM 33.1 °F - 28.9 °F 85% 30.17 in 10.0 mi Calm Calm - N/A   Overcast
9:10 PM 33.8 °F - 28.4 °F 81% 30.11 in 10.0 mi Calm Calm - N/A   Overcast
9:53 PM 33.1 °F - 28.9 °F 85% 30.16 in 8.0 mi Calm Calm - N/A   Overcast
10:53 PM 34.0 °F - 28.9 °F 82% 30.16 in 10.0 mi Calm Calm - N/A   Overcast
11:53 PM 34.0 °F 28.8 °F 28.9 °F 82% 30.17 in 10.0 mi SSW 5.8 mph - N/A   Overcast